Location: Cantaing
(50.1487°N, 3.1675°E)
Time: 02:12:32
(UTC+00:00)

ACS3 Solar Sail - Visible Passes

Search period start: 13 March 2026 00:00
Search period end: 23 March 2026 00:00
Orbit: 884 x 975 km, 97.2° (Epoch: 12 March)

Date Brightness Start Highest point End Pass type
(mag) Time Alt. Az. Time Alt. Az. Time Alt. Az.
13 Mar 3.4 01:08:55 10° NNE 01:11:34 27° NE 01:11:34 27° NE visible
13 Mar 3.0 02:51:53 10° N 02:55:15 27° NW 02:55:15 27° NW visible
14 Mar 3.2 01:20:07 10° NNE 01:23:04 31° NNE 01:23:04 31° NNE visible
14 Mar 3.1 03:03:19 10° N 03:06:45 24° NW 03:06:45 24° NW visible
14 Mar 4.3 23:50:46 10° NE 23:50:51 10° NE 23:50:51 10° NE visible
15 Mar 3.0 01:31:18 10° NNE 01:34:32 35° NNE 01:34:32 35° NNE visible
15 Mar 3.2 03:14:46 10° N 03:18:12 21° NW 03:18:12 21° NW visible
16 Mar 4.1 00:01:16 10° NE 00:02:16 13° NE 00:02:16 13° NE visible
16 Mar 2.8 01:42:27 10° NNE 01:45:56 39° NNE 01:45:56 39° NNE visible
16 Mar 3.3 03:26:12 10° NNW 03:29:36 19° NW 03:29:36 19° NW visible
17 Mar 4.0 00:11:58 10° NE 00:13:37 16° NE 00:13:37 16° NE visible
17 Mar 2.6 01:53:36 10° N 01:57:18 41° N 01:57:18 41° N visible
17 Mar 3.4 03:37:41 10° NNW 03:40:58 16° NW 03:40:58 16° NW visible
18 Mar 3.8 00:22:42 10° NE 00:24:56 19° NE 00:24:56 19° NE visible
18 Mar 2.5 02:04:42 10° N 02:08:36 42° NNW 02:08:36 42° NNW visible
18 Mar 3.5 03:49:15 10° NNW 03:51:49 13° NW 03:52:16 13° NW visible
19 Mar 3.6 00:33:30 10° NNE 00:36:12 23° NE 00:36:12 23° NE visible
19 Mar 2.5 02:15:48 10° N 02:19:52 41° NNW 02:19:52 41° NNW visible
19 Mar 3.7 04:01:08 10° NNW 04:02:36 11° NW 04:03:31 11° WNW visible
20 Mar 3.3 00:44:18 10° NNE 00:47:25 28° NE 00:47:25 28° NE visible
20 Mar 2.6 02:26:51 10° N 02:31:05 37° NW 02:31:05 37° NW visible
21 Mar 3.1 00:55:06 10° NNE 00:58:35 33° NE 00:58:35 33° NE visible
21 Mar 2.7 02:37:54 10° N 02:42:14 33° NW 02:42:14 33° NW visible
22 Mar 2.8 01:05:53 10° NNE 01:09:42 39° NE 01:09:42 39° NE visible
22 Mar 2.8 02:48:54 10° N 02:53:21 29° NW 02:53:21 29° NW visible
22 Mar 4.2 23:36:43 10° ENE 23:37:07 11° ENE 23:37:07 11° ENE visible
